Powrót do katalogu

NOAA 17 DEB

AktywnyPO
NORAD 48183·DEBRIS·🇺🇸 United States

Wystrzelony Jun 24, 2002 z Vandenberg Space Force Base

Loading…

Następne Przeloty (najbliższe 24 godziny)

TLE

ŚwieżeSource: Space-Track

Epoka: Sep 13, 2026, 05:56 UTC

1 48183U 02032Y   26256.24728198  .00004989  00000-0  10417-2 0  9998
2 48183  98.7822 264.4883 0007726 261.5351  98.4972 14.60342888286708

Śledź NOAA 17 DEB w czasie rzeczywistym z AllMySat

Download on the App Store